#timestamp,LO_Frequency,Hit,StdDev 
1575273615.4,286047002.2,N
1575273635.2,286047001.4,N
1575273655.1,286047003.5,N
1575273656.0,286047003.5,N
1575273675.8,286047003.4,N
1575273695.7,286047003.2,N
1575273715.5,286047004.2,N
1575273735.3,286047002.0,N
1575273755.2,286047003.0,N
1575273775.0,286047004.0,N
1575273775.9,286047004.0,N
1575273795.8,286047001.3,N
1575273815.6,286047004.3,N
1575273835.4,286047004.4,N
1575273855.3,286047004.1,N
1575273875.1,286047002.8,N
1575273895.8,286047002.8,N
1575273915.7,286046999.9,N
1575273935.5,286046999.8,N
1575273955.4,286047002.0,N
1575273975.2,286046999.7,N
1575273995.0,286047001.8,N
1575273995.9,286047001.8,N
1575274015.8,286047003.9,N
1575274035.6,286047001.6,N
1575274055.4,286047002.5,N
1575274075.3,286047002.0,N
1575274095.1,286047002.4,N
1575274115.9,286047000.0,N
1575274135.7,286047002.5,N
1575274155.5,286046999.7,N
1575274175.4,286046999.8,N
1575274195.2,286047002.0,N
1575274215.1,286047002.2,N
1575274216.0,286047002.2,N
1575274235.8,286047000.2,N
1575274255.6,286047000.2,N
1575274275.5,286047000.1,N
1575274295.3,286047000.3,N
1575274315.1,286046998.5,N
1575274335.9,286047002.3,N
1575274355.7,286047001.5,N
1575274375.6,286047001.7,N
1575274395.4,286047001.7,N
1575274415.2,286047003.7,N
1575274435.1,286047002.4,N
1575274436.0,286047002.4,N
1575274455.8,286047000.5,N
1575274475.7,286047001.1,N
1575274495.5,286047000.8,N
1575274515.3,286046998.3,N
1575274535.2,286047000.8,N
1575274555.9,286046998.2,N
1575274575.7,286046998.5,N
1575274595.6,286046999.0,N
1575274615.4,286046998.1,N
1575274635.3,286046998.1,N
1575274655.1,286047000.7,N
1575274656.0,286047000.7,N
1575274675.8,286047000.3,N
1575274695.7,286047002.7,N
1575274715.5,286047000.2,N
1575274735.3,286047001.0,N
1575274755.2,286047000.2,N
1575274775.0,286047002.5,N
1575274775.9,286047002.5,N
1575274795.8,286047002.4,N
1575274815.6,286047000.4,N
1575274835.4,286047000.0,N
1575274855.3,286047000.9,N
1575274875.1,286047000.8,N
1575274895.9,286047000.0,N
1575274915.7,286047000.2,N
1575274935.5,286047001.7,N
1575274955.4,286047004.0,N
1575274975.2,286047002.0,N
1575274995.0,286047002.3,N
1575274995.9,286047002.3,N
1575275015.8,286047001.6,N
1575275035.6,286047002.4,N
1575275055.5,286047002.7,N
1575275075.3,286047002.7,N
1575275095.1,286047002.7,N
1575275115.9,286047002.1,N
1575275135.7,286047000.1,N
1575275155.5,286047000.4,N
1575275175.4,286047000.2,N
1575275195.2,286047002.0,N
1575275215.1,286046999.7,N
1575275216.0,286046999.7,N
1575275235.8,286047002.4,N
1575275255.6,286047000.0,N
1575275275.5,286046999.9,N
1575275295.3,286047000.4,N
1575275315.2,286047000.2,N
1575275335.9,286047000.1,N
1575275355.7,286047000.2,N
1575275375.6,286047000.0,N
1575275395.4,286047000.9,N
1575275415.2,286046998.9,N
1575275435.1,286046998.7,N
1575275436.0,286046998.7,N
1575275455.8,286046996.6,N
1575275475.7,286046997.2,N
1575275495.5,286046996.8,N
1575275515.3,286046999.3,N
1575275535.2,286046997.2,N
1575275555.0,286046997.2,N
1575275555.9,286046997.2,N
1575275575.7,286046997.7,N
1575275595.6,286046996.1,N
1575275615.4,286046996.4,N
1575275635.3,286046993.8,Y
1575275655.1,286046996.0,P
1575275675.8,286046996.2,N
1575275695.7,286046995.7,N
1575275715.5,286046996.1,N
1575275735.4,286046995.5,Y
1575275755.2,286047001.0,P
1575275775.0,286047011.9,P
1575275775.9,286046998.5,N
1575275795.8,286046998.5,N
1575275815.6,286046998.3,N
1575275835.4,286046999.1,N
1575275855.3,286046996.7,N
1575275875.1,286046997.2,N
1575275895.9,286046997.8,N
1575275915.7,286046997.0,N
1575275935.5,286046997.2,N
1575275955.4,286046999.6,N
1575275975.2,286046997.8,N
1575275995.0,286046997.5,N
1575275995.9,286046997.5,N
1575276015.8,286046994.9,N
1575276035.6,286046998.4,N
1575276055.5,286046998.2,N
1575276075.3,286047001.0,N
1575276095.1,286046996.7,N
1575276115.9,286046997.8,N
1575276135.7,286046995.6,N
1575276155.6,286046995.7,N
1575276175.4,286046995.4,N
1575276195.2,286046995.1,N
1575276215.1,286046995.6,N
1575276216.0,286046995.6,N
1575276235.8,286046995.1,N
1575276255.6,286046995.1,N
1575276275.5,286046996.2,N
1575276295.3,286046993.4,N
1575276315.2,286046995.6,N
1575276335.9,286046994.5,Y
1575276355.7,286046997.3,P
1575276375.6,286046997.0,P
1575276395.4,286046994.9,P
1575276415.3,286046995.6,Y
1575276435.1,286046998.4,P
1575276436.0,286046998.4,N
1575276455.8,286046999.2,N
1575276475.7,286046999.1,N
1575276495.5,286046999.3,N
1575276515.4,286046996.8,Y
1575276535.2,286046998.2,P
1575276555.0,286047000.8,P
1575276555.9,286047000.8,N
1575276575.8,286047001.0,N
1575276595.6,286047001.0,N
1575276615.4,286047000.8,N
1575276635.3,286047002.0,N
1575276655.1,286046999.7,N
1575276675.9,286047002.7,N
1575276695.7,286047002.4,N
1575276715.5,286047002.5,N
1575276735.4,286047002.1,N
1575276755.2,286047003.9,N
1575276775.0,286047003.2,N
1575276775.9,286047003.2,N
1575276795.8,286047004.7,N
1575276815.6,286047006.0,Y
1575276835.5,286047000.5,P
1575276855.3,286046999.3,N
1575276875.1,286046998.3,N
1575276895.9,286047001.3,N
1575276915.7,286047003.8,Y
1575276935.6,286047003.2,P
1575276955.4,286047006.3,P
1575276975.2,286047007.7,P
1575276995.1,286047012.0,Y
1575276996.0,286047012.0,P
1575277015.8,286047010.4,N
1575277035.7,286047013.0,P
1575277055.5,286047016.0,Y
1575277075.3,286047008.7,P
1575277095.2,286047007.9,P
1575277115.0,286047006.9,P
1575277115.9,286047006.9,Y
1575277135.8,286046999.2,P
1575277155.6,286046997.8,N
1575277175.4,286046993.9,N
1575277195.3,286046994.4,N
